Location: Unspecified
(0.0000°N, 0.0000°E)
Time: 15:39:32
(UTC+01:00)

Meteor PRIRODA - Visible Passes

Search period start: 31 January 2015 00:00
Search period end: 10 February 2015 00:00
Orbit: 506 x 528 km, 97.3° (Epoch: 30 January)

Date Brightness Start Highest point End Pass type
(mag) Time Alt. Az. Time Alt. Az. Time Alt. Az.
31 Jan 4.1 05:47:31 45° SW 05:47:31 45° SW 05:50:16 10° SSW visible
01 Feb 4.2 05:33:04 50° S 05:33:04 50° S 05:35:55 10° S visible
02 Feb 5.1 05:18:36 35° SE 05:18:36 35° SE 05:21:19 10° S visible
03 Feb 6.0 05:04:08 22° ESE 05:04:08 22° ESE 05:06:25 10° SSE visible
04 Feb 6.8 04:49:39 14° ESE 04:49:39 14° ESE 04:51:02 10° SE visible
04 Feb 5.8 06:24:41 11° WSW 06:24:41 11° WSW 06:25:05 10° WSW visible
05 Feb 5.3 06:10:12 18° WSW 06:10:12 18° WSW 06:11:32 10° SW visible
06 Feb 5.0 05:55:43 25° SW 05:55:43 25° SW 05:57:32 10° SSW visible
07 Feb 4.9 05:41:13 31° SSW 05:41:13 31° SSW 05:43:15 10° SSW visible
08 Feb 5.2 05:26:42 29° SSE 05:26:42 29° SSE 05:28:44 10° S visible
09 Feb 5.9 05:12:11 22° SE 05:12:11 22° SE 05:13:57 10° SSE visible
